Location: Edmondson
(35.1065°N, 90.3104°W)
Time: 02:59:48
(UTC+00:00)

ACS3 Solar Sail - Pass Details

Date: 11 October 2024
Orbit: 962 x 1021 km, 97.5° (Epoch: 04 November)

Event Time Altitude Azimuth Distance (km) Brightness Sun altitude
Exits shadow 00:45:32 20° 71° (ENE) 2,141 3.0 -15.9°
Drops below altitude 10° 00:50:28 10° 20° (NNE) 2,819 4.0 -16.9°
Enters shadow 02:08:49 -30° 172° (S) 7,980 6.5 -32.7°
